User: anonymous   Login
Location: Unspecified
(0.0000°N, 0.0000°E)
Time: 09:48:06
(UTC+00:00)
Language:

SES 6 - Orbit

View from above orbital plane
View from above orbital plane
View from above satellite
View from above satellite

Ground track
Ground track

The orbit data is extracted from the following two-line orbital elements,

1 39172U 13026A   16182.19328252 -.00000273  00000-0  00000+0 0  9996
2 39172   0.0193 354.8589 0002098 121.2899 191.6110  1.00271923 11242
Epoch (UTC): 30 June 2016 04:38:19
Eccentricity: 0.0002098
inclination: 0.0193°
perigee height: 35777 km
apogee height: 35795 km
right ascension of ascending node: 354.8589°
argument of perigee: 121.2899°
revolutions per day: 1.00271923
mean anomaly at epoch: 191.6110°
orbit number at epoch: 1124

The dashed part of the orbit path shows where the satellite is in the earth's shadow,  

DLR